This is the latest recevied weather packets stored in our database for station/object SQ9NFI-4. If no packets are shown the sender has not sent any weather packets the latest 1 day(s).
| Time | Temp. | Humidity | Pressure | Rain* | Wind** | Luminosity | Snow |
|---|---|---|---|---|---|---|---|
| 1778082578 | 25.56° C | 34% | 1006.8 hPa | 0 mm | - | 183 W/m² | - |
| 1778082278 | 25.56° C | 34% | 1006.8 hPa | 0 mm | - | 157 W/m² | - |
| 1778081978 | 25° C | 35% | 1006.8 hPa | 0 mm | - | 63 W/m² | - |
| 1778081678 | 25.56° C | 33% | 1006.8 hPa | 0 mm | - | 79 W/m² | - |
| 1778081378 | 26.67° C | 32% | 1006.8 hPa | 0 mm | - | 193 W/m² | - |
| 1778081078 | 27.22° C | 32% | 1006.8 hPa | 0 mm | - | 247 W/m² | - |
| 1778080778 | 26.67° C | 32% | 1006.8 hPa | 0 mm | - | 245 W/m² | - |
| 1778080478 | 26.67° C | 32% | 1006.8 hPa | 0 mm | - | 281 W/m² | - |
| 1778080178 | 26.67° C | 33% | 1007.5 hPa | 0 mm | - | 280 W/m² | - |
| 1778079878 | 26.67° C | 33% | 1007.5 hPa | 0 mm | - | 144 W/m² | - |
| 1778079278 | 26.67° C | 33% | 1007.5 hPa | 0 mm | - | 303 W/m² | - |
| 1778078978 | 26.11° C | 36% | 1007.5 hPa | 0 mm | - | 307 W/m² | - |
| 1778078678 | 26.11° C | 34% | 1007.5 hPa | 0 mm | - | 258 W/m² | - |
| 1778078378 | 25.56° C | 34% | 1007.5 hPa | 0 mm | - | 169 W/m² | - |
| 1778078078 | 26.11° C | 34% | 1007.8 hPa | 0 mm | - | 300 W/m² | - |
| 1778077778 | 26.11° C | 33% | 1007.8 hPa | 0 mm | - | 370 W/m² | - |
| 1778077478 | 26.67° C | 33% | 1007.8 hPa | 0 mm | - | 347 W/m² | - |
| 1778077178 | 26.67° C | 32% | 1007.8 hPa | 0 mm | - | 407 W/m² | - |
| 1778076878 | 26.67° C | 33% | 1007.8 hPa | 0 mm | - | 418 W/m² | - |
| 1778076578 | 26.67° C | 33% | 1007.8 hPa | 0 mm | - | 421 W/m² | - |
| 1778076278 | 26.67° C | 33% | 1007.8 hPa | 0 mm | - | 434 W/m² | - |
| 1778075978 | 26.11° C | 34% | 1007.8 hPa | 0 mm | - | 451 W/m² | - |
| 1778075678 | 26.67° C | 33% | 1007.8 hPa | 0 mm | - | 452 W/m² | - |
| 1778075378 | 26.67° C | 35% | 1007.8 hPa | 0 mm | - | 471 W/m² | - |
| 1778075078 | 26.67° C | 34% | 1007.8 hPa | 0 mm | - | 498 W/m² | - |
* Rain latest hour (hover to see other rain measurements)
** Current wind speed in m/s (hover to see current wind gust speed)